[[{"header":{"parameterUnit":"m.s-1","parameterCategory":1,"la1":30.2991,"la2":30.254,"lo1":-89.0895,"lo2":-89.0444,"dy":0.0017,"dx":0.0017,"nx":28,"ny":28,"refTime":"2024-09-03T09:00:00:Z","depth":0,"parameterNumber":2,"parameterNumberName":"U-component_of_WINDS"},"data":[0,0,0,0,0,0,0,0,0,0,0,0,0,0,0,0,0,0,0,0,0,0,0,0,0,0,0,0,0,0,0,0,0,0,0,0,0,0,0,0,0,0,0,0,0,0,0,0,0,0,0,0,0,0,0,0,0,0,-5.8533,-5.8534,0,-5.8663,-5.8664,-5.8666,-5.8528,-5.8523,-5.8518,-5.8512,-5.8652,-5.866,-5.8668,0,0,0,0,0,0,0,0,0,0,0,0,0,-5.817,-5.8177,-5.8533,-5.8534,-5.8536,-5.8663,-5.8665,-5.8666,-5.8529,-5.8523,-5.8516,-5.851,-5.8649,-5.8659,-5.8669,0,0,0,0,0,0,0,0,0,0,0,0,0,-5.8317,-5.818,-5.8532,-5.8483,-5.8479,-5.8662,-5.8665,-5.8667,-5.853,-5.8522,-5.8514,-5.8507,-5.8645,-5.8658,-5.8671,-5.8911,0,0,-5.871,-5.8716,0,0,0,0,0,0,0,0,-5.8309,-5.833,-5.8488,-5.8486,-5.8483,-5.8571,-5.8587,-5.8749,-5.8532,-5.8511,-5.8512,-5.8503,-5.8632,-5.8645,-5.8687,-5.8917,-5.8923,-5.8712,-5.8719,-5.8725,-5.8729,0,0,0,0,0,0,0,-5.8299,-5.8324,-5.8584,-5.8491,-5.8488,-5.8455,-5.8467,-5.8617,-5.8615,-5.8513,-5.8503,-5.852,-5.8629,-5.8675,-5.869,-5.8925,-5.8711,-5.8723,-5.8731,-5.8736,-5.9358,-5.9366,0,0,0,0,0,0,-5.8293,-5.8316,-5.858,-5.8588,-5.8374,-5.8468,-5.8482,-5.8551,-5.8613,-5.8614,-5.8527,-5.8513,-5.8657,-5.8675,-5.8694,-5.8978,-5.8725,-5.8737,-5.8745,-5.9349,-5.936,-5.9369,0,0,0,0,0,0,-5.8286,-5.8318,-5.8575,-5.845,-5.848,-5.8483,-5.8562,-5.8558,-5.8604,-5.8623,-5.8623,-5.8574,-5.8651,-5.8676,-5.8857,-5.8981,-5.8743,-5.8755,-5.9339,-5.9353,-5.9365,-5.9549,0,0,0,0,0,0,-5.8276,-5.8316,-5.8407,-5.8453,-5.8487,-5.8735,-5.857,-5.8566,-5.8626,-5.861,-5.8668,-5.867,-5.8647,-5.8839,-5.887,-5.8994,-5.8765,-5.9328,-5.9345,-5.9361,-5.9532,-5.9566,-5.9596,0,0,0,0,0,-5.8264,-5.8455,-5.8412,-5.8444,-5.86,-5.8743,-5.8762,-5.873,-5.8637,-5.8728,-5.874,-5.8668,-5.8963,-5.8858,-5.8893,-5.9023,-5.932,-5.934,-5.9359,-5.9517,-5.956,-5.9595,0,0,0,0,0,0,-5.8425,-5.846,-5.8413,-5.8624,-5.8681,-5.8719,-5.8833,-5.8777,-5.8863,-5.8844,-5.8803,-5.8817,-5.901,-5.9034,-5.8918,-5.9258,-5.9126,-5.9154,-5.9234,-5.9275,-5.9307,-5.9296,-5.8776,0,0,0,0,0,-5.8485,-5.8596,-5.8621,-5.8805,-5.8836,-5.883,-5.8891,-5.8862,-5.892,-5.8944,-5.897,-5.9031,-5.9136,-5.9207,-5.9306,-5.9535,-5.9545,-5.9641,-5.9674,-5.97,-5.9724,-5.9846,-5.9889,-5.9434,-5.9434,-5.9433,0,0,-5.861,-5.8643,-5.8716,-5.8839,-5.8879,-5.8997,-5.8852,-5.8982,-5.9069,-5.8964,-5.9136,-5.9158,-5.9223,-5.9429,-5.9521,-5.9456,-5.9852,-5.9725,-5.9746,-5.9756,-5.9871,-5.9914,-5.9952,-5.9447,-5.9445,-5.9443,0,0,-5.8897,-5.8934,-5.909,-5.9134,-5.9197,-5.9191,-5.9229,-5.9276,-5.9285,-5.9457,-5.938,-5.9485,-5.9668,-5.9717,-5.9767,-6.0073,-6.001,-6.0107,-6.0276,-6.0395,-6.0431,-6.0462,-6.0571,-6.061,-6.0131,-6.0132,-6.0132,0,-5.9045,-5.9217,-5.9178,-5.9314,-5.937,-5.9279,-5.9438,-5.9483,-5.9576,-5.9617,-5.9543,-5.977,-5.9808,-6.0024,-6.0098,-6.0142,-6.0184,-6.0099,-6.0429,-6.046,-6.0489,-6.0591,-6.0632,-6.0143,-6.0142,-6.014,-6.0139,0,-5.9396,-5.9517,-5.9636,-5.9725,-5.9795,-5.9943,-5.9927,-6.0003,-5.9967,-5.997,-6.0147,-6.0189,-6.0294,-6.0343,-6.0311,-6.0555,-6.0512,-6.0434,-6.03,-6.0544,-6.064,-6.0679,-6.0159,-6.0155,-6.0152,-6.0149,0,0,-5.9787,-5.9853,-5.9897,-5.9936,-5.9999,-6.0093,-6.0236,-6.0337,-6.0402,-6.0471,-6.0589,-6.0747,-6.0675,-6.0731,-6.0704,-6.0809,-6.1048,-6.0717,-6.0718,-6.0776,-6.1318,-6.1375,-6.1421,-6.1006,-6.1014,-6.102,-6.1312,0,-6.0075,-6.032,-6.029,-6.0526,-6.0637,-6.0552,-6.0677,-6.073,-6.0737,-6.0834,-6.0842,-6.0954,-6.085,-6.0883,-6.0984,-6.0997,-6.1155,-6.0976,-6.1117,-6.1123,-6.1101,-6.1471,-6.1532,-6.1805,-6.1349,-6.1355,-6.136,0,-6.0443,-6.0521,-6.0768,-6.0813,-6.0858,-6.0971,-6.106,-6.1153,-6.1212,-6.121,-6.1273,-6.1227,-6.1372,-6.1237,-6.1435,-6.1314,-6.137,-6.1386,-6.1396,-6.1406,-6.1255,-6.149,-6.1892,-6.1932,-6.1419,-6.1414,-6.141,0,-6.0702,-6.087,-6.1038,-6.1075,-6.1132,-6.1213,-6.1241,-6.1291,-6.1354,-6.1433,-6.1473,-6.157,-6.1622,-6.1699,-6.168,-6.1584,-6.1884,-6.1747,-6.1886,-6.1887,-6.1952,-6.1947,-6.2366,-6.1992,-6.1991,-6.199,-6.1989,0,-6.1025,-6.1179,-6.1155,-6.1259,-6.1429,-6.1393,-6.1563,-6.1581,-6.1627,-6.1733,-6.1667,-6.1769,-6.1739,-6.1841,-6.1828,-6.1994,-6.2019,-6.2022,-6.2016,-6.2026,-6.2026,-6.2061,-6.2041,-6.2001,-6.1999,-6.1997,-6.1995,0,-6.1342,-6.1332,-6.151,-6.1549,-6.1563,-6.1687,-6.1721,-6.1819,-6.1821,-6.1956,-6.1986,-6.199,-6.2105,-6.2095,-6.2226,-6.2217,-6.2422,-6.2395,-6.2402,-6.2395,-6.2534,-6.252,-6.2988,-6.3047,-6.2636,-6.264,-6.2644,0,-6.1548,-6.1664,-6.1715,-6.178,-6.1813,-6.1921,-6.1983,-6.1953,-6.2021,-6.2097,-6.2187,-6.2295,-6.238,-6.2569,-6.2585,-6.2684,-6.2658,-6.2815,-6.2672,-6.2679,-6.2658,-6.265,-6.2661,-6.2843,-6.2847,-6.2851,-6.2854,0,-6.1914,-6.1903,-6.1995,-6.2086,-6.2162,-6.2233,-6.2297,-6.2355,-6.2331,-6.2412,-6.2528,-6.2594,-6.2726,-6.2835,-6.2929,-6.2959,-6.2904,-6.2899,-6.2936,-6.2947,-6.2945,-6.2946,-6.2476,-6.2888,-6.2885,-6.2882,-6.288,-6.2879,-6.218,-6.2279,-6.233,-6.2434,-6.2479,-6.254,-6.2634,-6.2647,-6.2742,-6.2846,-6.2823,-6.2954,-6.301,-6.313,-6.317,-6.3273,-6.3216,-6.327,-6.3284,-6.3297,-6.3312,-6.2931,-6.329,-6.3289,-6.3288,-6.3288,-6.3287,0,-6.2541,-6.2569,-6.2666,-6.2757,-6.2839,-6.2778,-6.2846,-6.2919,-6.3034,-6.3091,-6.3175,-6.3309,-6.3414,-6.3438,-6.3539,-6.3617,-6.3594,-6.3644,-6.3637,-6.3645,-6.3358,-6.3315,-6.3661,-6.3661,-6.3661,-6.3661,-6.3661,-6.3661,-6.2738,-6.2901,-6.2897,-6.3082,-6.3109,-6.3235,-6.3279,-6.3335,-6.338,-6.3531,-6.3617,-6.3631,-6.3675,-6.3779,-6.3873,-6.3877,-6.3917,-6.3978,-6.3972,-6.3703,-6.3665,-6.363,-6.3589,-6.3987,-6.3987,-6.425,-6.4252,-6.4254]},{"header":{"parameterUnit":"m.s-1","parameterCategory":1,"la1":30.2991,"la2":30.254,"lo1":-89.0895,"lo2":-89.0444,"dy":0.0017,"dx":0.0017,"nx":28,"ny":28,"refTime":"2024-09-03T09:00:00:Z","depth":0,"parameterNumber":3,"parameterNumberName":"V-component_of_WINDS"},"data":[0,0,0,0,0,0,0,0,0,0,0,0,0,0,0,0,0,0,0,0,0,0,0,0,0,0,0,0,0,0,0,0,0,0,0,0,0,0,0,0,0,0,0,0,0,0,0,0,0,0,0,0,0,0,0,0,0,0,-0.0918,-0.0917,0,-0.0771,-0.0769,-0.0768,-0.0797,-0.08,-0.0802,-0.0805,-0.0648,-0.0641,-0.0634,0,0,0,0,0,0,0,0,0,0,0,0,0,-0.1218,-0.1212,-0.0919,-0.0917,-0.0915,-0.0771,-0.0769,-0.0767,-0.0796,-0.08,-0.0803,-0.0806,-0.065,-0.0642,-0.0634,0,0,0,0,0,0,0,0,0,0,0,0,0,-0.1081,-0.121,-0.0919,-0.0912,-0.091,-0.0772,-0.0769,-0.0767,-0.0796,-0.08,-0.0804,-0.0808,-0.0652,-0.0643,-0.0633,-0.049,0,0,-0.0602,-0.0598,0,0,0,0,0,0,0,0,-0.1088,-0.107,-0.0915,-0.0913,-0.091,-0.0807,-0.0817,-0.0673,-0.0795,-0.0839,-0.0805,-0.081,-0.0697,-0.0683,-0.0647,-0.0482,-0.0476,-0.0601,-0.0595,-0.0591,-0.0588,0,0,0,0,0,0,0,-0.1098,-0.1076,-0.086,-0.0913,-0.091,-0.0914,-0.0899,-0.079,-0.0747,-0.0835,-0.0837,-0.082,-0.0696,-0.0656,-0.0643,-0.0473,-0.0601,-0.0592,-0.0586,-0.0582,-0.0179,-0.0174,0,0,0,0,0,0,-0.1111,-0.1084,-0.0865,-0.0856,-0.1011,-0.0905,-0.0889,-0.0836,-0.0748,-0.0739,-0.0816,-0.0822,-0.0671,-0.0655,-0.0638,-0.0461,-0.0591,-0.0581,-0.0576,-0.0184,-0.0178,-0.0173,0,0,0,0,0,0,-0.1117,-0.1091,-0.0871,-0.097,-0.0942,-0.0896,-0.0836,-0.083,-0.0791,-0.0734,-0.0726,-0.0784,-0.0674,-0.0652,-0.0526,-0.0456,-0.0577,-0.0568,-0.0189,-0.0182,-0.0175,-0.0108,0,0,0,0,0,0,-0.1126,-0.1093,-0.104,-0.0969,-0.0937,-0.0763,-0.0832,-0.0825,-0.0774,-0.0779,-0.0701,-0.0692,-0.0675,-0.054,-0.0516,-0.0444,-0.056,-0.0195,-0.0186,-0.0178,-0.0116,-0.01,-0.0085,0,0,0,0,0,-0.1136,-0.1027,-0.1037,-0.1011,-0.087,-0.0759,-0.0741,-0.0726,-0.0768,-0.0713,-0.0676,-0.0694,-0.0468,-0.0527,-0.0499,-0.0424,-0.0199,-0.0188,-0.0178,-0.0123,-0.0103,-0.0086,0,0,0,0,0,0,-0.109,-0.1018,-0.1028,-0.0893,-0.0832,-0.0764,-0.0695,-0.0705,-0.0629,-0.0637,-0.062,-0.0602,-0.0472,-0.0436,-0.0503,-0.0279,-0.0339,-0.0323,-0.0307,-0.0287,-0.0272,-0.0282,-0.0551,0,0,0,0,0,-0.1064,-0.0982,-0.0923,-0.0809,-0.0778,-0.0741,-0.0692,-0.0686,-0.0621,-0.0595,-0.0549,-0.0483,-0.0397,-0.0341,-0.0259,-0.0112,-0.0093,-0.0046,-0.0031,-0.0018,-0.0003,0.0082,0.0104,-0.0138,-0.0138,-0.0139,0,0,-0.101,-0.096,-0.0909,-0.0798,-0.075,-0.0662,-0.0719,-0.0625,-0.0559,-0.058,-0.0457,-0.0421,-0.0347,-0.0208,-0.0145,-0.0174,0.0068,-0.0005,0.0005,0.0013,0.0095,0.0118,0.0138,-0.0131,-0.0132,-0.0134,0,0,-0.0865,-0.0821,-0.072,-0.067,-0.0597,-0.0573,-0.0549,-0.0478,-0.0455,-0.0333,-0.0345,-0.0265,-0.0118,-0.0064,-0.0016,0.0152,0.0139,0.0178,0.026,0.0342,0.0361,0.0379,0.0443,0.0465,0.0192,0.0193,0.0193,0,-0.0806,-0.0677,-0.0666,-0.0569,-0.0518,-0.0535,-0.0429,-0.0381,-0.0284,-0.0247,-0.0282,-0.0095,-0.0047,0.0106,0.0148,0.0185,0.0217,0.017,0.0357,0.0375,0.0391,0.0452,0.0476,0.0197,0.0197,0.0196,0.0196,0,-0.0606,-0.0515,-0.0442,-0.0348,-0.0289,-0.0189,-0.016,-0.0101,-0.0099,-0.007,0.0058,0.0115,0.0211,0.0247,0.025,0.0402,0.0382,0.0352,0.0292,0.0418,0.0477,0.05,0.0204,0.0202,0.0201,0.0199,0,0,-0.0427,-0.0328,-0.0301,-0.0257,-0.0176,-0.0105,-0.0004,0.0088,0.0141,0.0208,0.0296,0.0422,0.0396,0.045,0.0459,0.053,0.0665,0.0493,0.0495,0.0526,0.0841,0.0866,0.0892,0.0656,0.0661,0.0664,0.0837,0,-0.0272,-0.0096,-0.0081,0.0079,0.0165,0.0152,0.024,0.0301,0.0331,0.0411,0.0444,0.0535,0.0491,0.0524,0.0594,0.0634,0.073,0.0621,0.0742,0.0746,0.0727,0.0922,0.0948,0.1107,0.0859,0.0863,0.0865,0,-0.0068,0.0006,0.0175,0.0246,0.0283,0.0362,0.045,0.0524,0.0595,0.0612,0.0672,0.0672,0.078,0.0714,0.0865,0.0791,0.0842,0.0869,0.0876,0.089,0.0816,0.0946,0.1158,0.1184,0.0901,0.0898,0.0895,0,0.005,0.0191,0.0312,0.0349,0.0435,0.0492,0.053,0.0596,0.0652,0.0729,0.0766,0.0854,0.0904,0.0974,0.1,0.0948,0.1152,0.1086,0.1172,0.1172,0.1218,0.1215,0.1445,0.1245,0.1244,0.1244,0.1243,0,0.0224,0.0329,0.0367,0.0441,0.0559,0.0576,0.0694,0.0729,0.0789,0.0872,0.0866,0.0945,0.0972,0.1057,0.1077,0.1202,0.1223,0.1243,0.1248,0.1245,0.1244,0.1281,0.1272,0.125,0.1249,0.1247,0.1246,0,0.0377,0.0405,0.0537,0.0607,0.0627,0.0712,0.0774,0.0847,0.0876,0.0982,0.1008,0.1054,0.1154,0.1186,0.1306,0.132,0.1467,0.146,0.1443,0.1445,0.153,0.1523,0.1795,0.1834,0.1604,0.1606,0.1608,0,0.0487,0.0568,0.0647,0.0702,0.0743,0.0831,0.0888,0.0908,0.0968,0.1055,0.112,0.1218,0.1298,0.1458,0.1504,0.1597,0.1595,0.1684,0.1609,0.1606,0.1602,0.1598,0.1608,0.1699,0.1702,0.1703,0.1705,0,0.0682,0.0693,0.0773,0.0861,0.0929,0.0999,0.1067,0.1113,0.1143,0.1212,0.1313,0.1375,0.1498,0.1598,0.1693,0.1735,0.1728,0.1728,0.1753,0.1754,0.1742,0.1754,0.1485,0.1722,0.172,0.1719,0.1718,0.1718,0.082,0.0892,0.096,0.1052,0.1105,0.1169,0.1242,0.128,0.1365,0.1466,0.1473,0.1584,0.1655,0.1782,0.183,0.1919,0.1893,0.1929,0.1939,0.1949,0.1958,0.1725,0.1935,0.1935,0.1935,0.1934,0.1934,0,0.1017,0.106,0.1144,0.124,0.1313,0.1296,0.1371,0.1435,0.1531,0.1598,0.1677,0.1795,0.1892,0.1946,0.2043,0.2105,0.2104,0.213,0.2128,0.2139,0.1972,0.1942,0.2129,0.2129,0.2129,0.2129,0.2129,0.2129,0.1129,0.1252,0.1271,0.1422,0.1465,0.1573,0.1617,0.1678,0.1731,0.1864,0.1944,0.1977,0.204,0.2143,0.2232,0.2246,0.2284,0.2314,0.2325,0.217,0.215,0.2131,0.2103,0.2321,0.2321,0.2485,0.2486,0.2487]}]]